Location: Fontevrault
(47.1823°N, 0.0493°E)
Time: 17:54:10
(UTC+00:00)

Cosmos 1725 Rocket - Pass Details

Date: 27 October 2021
Orbit: 961 x 991 km, 82.9° (Epoch: 27 November)

Event Time Altitude Azimuth Distance (km) Brightness Sun altitude
Rises 20:33:35 0° 211° (SSW) 3,661 7.1 -37.8°
Enters shadow 20:34:37 - 214° (SSW) 3,292 6.8 -38.0°
Exits shadow 20:44:23 29° 331° (NNW) 1,694 5.5 -39.5°
Drops below altitude 10° 20:47:50 10° 356° (N) 2,713 6.6 -40.0°
Sets 20:50:32 0° 4° (N) 3,662 7.3 -40.4°
